Theta_e
350 349 349 349 351 349 349 352 353 352 352 353 353 353 354 353 352 352 353 352 353 354 354 353 352 351 351 350 349 348 348 349 350 350 350 350 349 348 348 348 347 345 347 347 346 346 346 346 344 344 345 344 343 343 342 342 343 344 345 344 344 344 343 343 343 343 343 344 344 344 343 343 342 341 340 340 340 340 339 338 338 339 339 339 340
349 348 348 349 351 350 351 353 352 352 352 353 353 352 354 354 353 353 353 353 353 353 352 351 351 350 349 348 347 345 345 347 349 350 350 349 348 349 348 348 347 345 346 347 346 347 347 346 345 345 346 344 344 344 344 343 342 343 344 344 344 345 344 343 343 343 343 343 343 343 343 342 342 341 340 340 341 342 341 339 338 339 339 339 339
347 346 347 349 351 352 352 353 353 353 352 352 352 352 353 354 353 353 353 353 353 351 349 348 348 348 346 343 343 342 343 346 348 350 351 350 349 349 348 348 348 346 345 347 346 346 347 347 346 346 346 345 345 345 345 343 343 343 344 344 344 344 344 343 343 343 343 342 343 342 343 342 342 341 341 341 342 343 343 342 340 340 340 339 339
346 344 346 349 351 352 352 352 353 353 351 352 352 352 353 353 352 352 353 353 351 347 344 345 344 344 342 339 341 342 344 346 348 350 351 350 349 348 349 348 348 348 346 346 347 346 346 347 347 347 346 346 346 345 345 344 343 344 345 344 344 343 344 344 343 343 343 342 342 342 341 341 341 341 341 342 343 343 343 342 341 340 340 340 340
347 346 346 349 350 350 351 352 352 352 352 352 352 352 352 353 353 353 353 350 347 344 342 342 341 339 338 337 342 345 343 345 347 349 349 350 348 347 348 347 347 350 348 346 347 346 347 347 347 347 347 347 347 346 346 346 345 345 346 344 343 342 343 343 343 343 343 342 342 342 342 341 341 341 341 341 342 342 342 341 341 340 339 339 339
349 348 346 349 351 350 351 352 351 351 352 353 353 353 353 354 354 353 351 347 346 344 341 342 339 337 337 336 342 346 343 342 345 347 349 350 348 348 349 348 349 351 349 347 347 346 347 348 348 348 348 348 348 347 347 347 346 345 346 345 344 343 343 343 343 342 342 343 343 343 343 342 341 342 343 342 341 341 341 341 341 341 340 339 339
349 348 347 349 350 351 351 351 351 351 352 353 353 353 354 354 354 352 349 346 345 344 342 342 340 339 337 335 338 343 342 341 343 345 347 349 349 349 349 349 350 351 349 348 347 347 348 348 348 348 347 348 348 347 347 346 346 346 345 346 346 345 345 344 344 343 342 343 343 343 342 342 342 343 343 342 343 342 341 341 341 341 341 340 340
348 348 347 348 349 350 351 351 352 352 352 354 354 353 354 354 352 350 348 345 344 344 343 342 341 341 339 336 336 338 340 340 341 344 345 347 350 350 348 348 349 349 349 348 348 348 348 347 347 347 347 347 347 347 347 346 346 347 346 346 346 347 346 344 344 345 344 344 343 343 343 343 343 343 342 342 343 342 343 342 342 342 342 341 341
347 348 347 347 348 350 351 352 352 353 353 354 355 354 353 354 351 346 344 344 342 342 343 343 343 342 341 340 339 337 338 338 338 341 344 347 350 350 349 350 350 350 349 348 348 348 348 348 347 347 347 346 347 347 346 347 347 347 347 347 347 347 346 345 345 345 345 344 344 344 344 344 344 344 344 343 343 343 343 342 341 341 342 342 342
346 348 348 347 348 349 351 353 353 353 353 354 355 355 354 354 351 345 341 341 341 340 340 342 343 343 343 342 341 339 340 339 337 339 344 347 349 349 350 351 351 352 351 349 348 347 348 350 348 348 348 346 346 346 346 346 346 346 347 347 346 346 346 345 345 345 345 345 345 345 345 345 345 345 345 345 344 344 344 343 342 342 342 342 343
347 348 350 350 349 349 351 352 353 353 354 354 355 355 354 353 351 347 341 341 342 341 339 342 344 343 344 344 342 341 341 340 339 340 344 347 348 349 350 351 352 353 351 350 349 348 348 350 350 350 350 347 346 347 347 346 346 346 346 346 346 346 346 345 344 345 345 345 345 345 345 345 345 345 345 345 344 345 344 344 343 343 343 343 343
348 350 351 352 351 350 351 352 353 353 354 354 354 355 355 353 351 348 345 343 343 342 340 342 345 344 345 345 344 343 342 340 341 344 345 346 348 350 351 351 352 352 350 350 350 349 347 347 348 350 350 348 346 346 347 346 345 345 345 345 346 345 345 345 345 345 345 345 346 346 346 346 346 345 345 345 344 345 345 344 344 344 343 343 343
350 351 352 352 351 351 352 352 353 353 353 354 354 354 354 353 350 348 347 346 345 342 340 342 345 344 345 345 344 345 343 342 343 345 346 346 347 350 351 351 351 351 350 349 348 347 346 344 345 347 347 347 347 346 346 344 343 343 343 343 345 346 345 345 345 345 345 345 346 345 345 345 345 345 345 344 344 345 345 344 344 344 344 344 344
351 352 352 352 351 351 352 352 353 354 354 354 353 353 355 352 349 349 348 347 346 342 339 343 344 343 344 344 344 344 344 343 344 345 345 346 347 348 349 348 348 348 348 347 345 345 345 343 343 345 344 344 346 345 344 344 343 341 341 341 344 345 345 345 344 345 345 344 345 345 345 345 345 345 345 344 344 344 344 344 344 344 344 344 344
351 352 352 352 351 351 352 352 353 354 355 355 353 353 355 350 346 348 348 346 346 342 339 341 344 344 345 345 344 343 343 343 343 343 343 345 347 347 347 345 346 347 347 346 345 343 341 339 341 343 343 343 344 343 343 341 337 335 336 339 343 344 344 341 337 337 336 333 334 336 338 340 341 343 344 344 344 344 344 344 344 344 344 344 344
351 352 352 352 351 351 352 353 353 354 354 355 354 354 354 348 343 346 347 345 345 342 340 340 341 343 345 344 344 343 343 343 343 342 342 344 345 345 346 344 344 346 345 344 343 340 336 333 335 339 343 344 343 341 338 331 324 322 324 329 333 333 332 329 323 322 321 318 318 320 322 325 326 330 333 336 337 340 343 344 344 344 344 344 343
351 351 352 352 352 352 352 353 354 354 354 354 353 355 354 347 342 343 344 344 342 343 342 339 336 339 344 345 343 343 342 342 343 343 343 343 344 344 345 344 344 345 344 342 339 335 332 329 327 330 338 343 339 331 325 322 320 318 317 318 319 319 319 318 316 317 316 316 316 316 316 317 317 318 320 322 324 328 333 337 339 342 342 343 343
351 351 351 352 352 352 352 353 354 355 355 354 352 355 354 347 342 342 343 341 340 342 344 340 334 334 340 343 342 343 344 343 343 344 344 343 343 344 345 345 345 344 344 343 339 335 331 328 323 321 328 335 329 320 319 323 325 323 320 320 320 320 320 319 319 319 320 320 319 317 316 316 316 316 317 318 318 319 321 323 327 330 332 333 336
351 352 352 353 353 353 353 353 354 355 355 354 353 354 354 349 343 342 341 337 338 343 344 342 338 336 338 341 341 341 342 344 343 343 344 343 344 343 343 345 345 343 343 343 341 338 332 329 329 323 321 324 321 320 322 324 326 326 325 324 324 324 324 324 324 324 325 325 325 322 318 316 316 316 317 317 318 318 318 318 318 319 319 320 322
352 352 352 353 353 353 353 353 353 355 355 355 353 353 354 350 345 343 339 334 337 343 345 343 342 341 339 339 340 339 339 342 344 343 343 342 343 343 342 343 343 342 342 341 340 338 332 329 332 329 324 320 320 324 326 325 327 328 327 326 326 327 327 328 328 328 329 329 329 328 322 317 316 316 316 317 317 317 317 317 317 317 317 317 317
352 353 353 353 353 353 353 353 354 355 356 356 354 353 353 350 345 344 339 334 337 341 344 344 343 342 341 339 340 341 341 341 341 342 343 342 341 341 341 341 341 340 340 340 340 338 334 331 330 331 330 325 321 323 325 327 328 328 328 329 328 328 329 329 330 330 330 331 331 331 326 319 317 319 319 318 319 318 318 317 317 317 317 317 317
352 353 353 353 353 353 353 354 356 356 355 355 354 352 353 350 346 346 342 335 336 339 342 344 343 342 341 340 341 342 343 343 341 341 343 343 341 340 340 340 340 340 340 340 340 339 338 333 330 333 335 330 327 325 325 327 328 328 328 329 329 329 329 329 330 330 330 331 331 331 329 321 319 324 325 325 325 324 323 323 322 322 321 321 319
352 352 353 353 353 354 354 356 357 357 355 355 355 353 352 351 348 346 343 337 336 339 340 341 341 340 339 339 340 341 341 342 342 341 341 342 341 339 338 339 339 340 340 337 336 338 339 334 333 335 333 330 329 327 327 327 328 329 328 329 329 329 329 330 330 330 330 331 331 332 331 327 324 327 329 329 329 328 328 327 326 327 327 326 326
352 352 352 353 353 355 357 357 358 357 355 355 355 354 352 352 350 347 344 339 336 338 340 340 340 340 340 340 340 340 339 339 340 341 341 341 341 340 339 340 340 340 339 335 333 336 337 336 335 333 330 330 329 327 328 328 328 329 329 329 329 329 330 330 330 330 330 331 331 331 332 331 330 331 331 331 331 331 330 328 327 326 326 326 328
353 352 353 353 353 355 357 358 358 357 355 355 355 355 353 353 352 348 345 341 337 338 340 340 340 340 341 340 340 339 339 338 337 338 340 340 340 340 340 340 338 339 339 337 335 335 335 335 334 331 328 329 329 328 328 328 329 328 328 329 329 329 330 329 330 330 330 331 331 331 332 332 332 332 332 332 332 332 332 331 330 328 327 326 327
352 352 352 354 353 354 355 356 357 356 355 355 356 355 354 353 353 349 346 343 339 336 339 340 339 339 340 339 338 339 339 338 337 337 338 339 339 339 341 340 337 338 339 338 337 336 334 334 332 330 329 328 328 329 329 328 329 329 328 329 329 329 329 330 330 330 330 331 331 331 331 331 331 332 332 332 332 332 332 332 332 331 330 329 329
350 351 351 352 353 354 353 354 356 355 355 356 356 356 355 354 353 350 347 344 340 336 337 339 339 339 339 338 338 339 338 337 337 338 337 337 337 338 341 340 338 338 339 339 338 337 336 336 333 330 330 329 329 330 330 330 329 329 329 329 330 329 329 329 329 330 330 330 331 331 331 331 331 331 331 331 331 332 332 331 330 330 330 329 329
349 350 350 351 352 353 353 353 355 354 354 356 356 356 355 354 354 351 348 346 343 338 336 338 338 339 339 338 337 339 338 336 337 337 337 337 337 338 338 338 338 339 339 339 338 338 336 336 336 334 331 331 333 332 332 332 331 331 331 330 331 330 330 329 329 330 330 330 330 331 331 331 331 331 331 331 330 330 330 330 330 329 329 329 328
350 349 350 351 351 352 352 353 354 354 353 355 356 356 356 355 354 353 349 346 346 342 338 337 337 338 340 339 337 338 338 336 335 335 335 335 336 337 337 338 338 338 339 339 338 337 337 334 335 336 333 331 333 333 332 332 331 331 331 330 330 330 330 329 329 330 330 331 331 331 331 331 331 332 332 331 331 329 328 328 329 329 329 329 328
351 351 350 351 351 351 352 352 353 353 353 354 356 356 356 355 354 354 351 348 346 345 341 337 337 339 340 339 338 338 338 336 335 334 334 334 335 336 337 337 337 338 338 339 338 337 336 335 335 336 334 332 333 333 332 331 332 331 330 330 330 330 330 330 330 331 331 331 332 331 331 332 332 332 332 332 331 330 329 328 328 329 329 328 328
351 351 351 352 352 352 352 352 352 352 353 354 355 356 356 355 354 354 352 349 347 346 344 339 337 339 341 339 338 338 338 337 335 334 334 335 336 336 336 335 336 338 339 338 338 338 336 335 336 336 335 334 333 334 335 334 332 331 331 331 331 331 331 331 331 331 332 332 332 331 332 331 332 332 332 332 332 331 331 329 327 328 328 328 328
352 352 352 352 352 352 351 352 353 352 352 354 356 356 356 355 355 354 353 351 348 347 345 341 338 339 340 340 338 338 337 337 336 336 336 335 336 336 336 335 336 338 339 339 339 339 338 336 336 337 336 335 335 336 337 338 334 331 330 330 330 331 331 332 332 331 331 331 330 331 331 331 331 331 331 331 331 330 330 330 329 328 328 328 328
352 352 352 352 352 352 352 352 353 351 351 354 355 356 356 355 355 354 353 352 349 347 346 342 339 338 340 340 339 338 337 337 337 338 338 337 336 337 336 337 338 338 338 339 340 341 341 338 336 337 337 336 337 337 337 338 337 335 333 332 331 332 333 335 335 333 331 330 331 330 330 329 329 330 330 330 330 330 330 330 330 329 329 329 328
352 352 352 353 352 352 352 352 352 351 350 353 355 356 356 355 355 354 353 352 350 348 346 344 340 338 339 341 341 339 338 338 338 338 340 339 338 339 338 338 340 339 337 339 340 340 341 340 338 339 338 337 337 338 337 338 339 338 336 336 334 334 334 335 336 335 333 332 333 332 331 330 330 329 330 330 330 330 330 330 330 329 330 329 329
353 352 352 353 352 352 352 352 352 351 351 353 355 356 356 355 355 354 353 352 350 348 347 345 342 339 339 340 342 341 339 339 340 339 340 340 339 339 339 338 339 340 338 338 340 341 341 342 341 340 340 338 337 337 337 337 337 337 337 337 337 336 335 335 336 336 335 334 334 334 334 333 332 331 330 330 330 330 330 330 329 329 329 329 329
354 352 352 353 352 352 352 352 352 352 352 353 355 356 355 355 355 354 353 353 351 349 348 346 344 341 339 340 341 342 340 339 340 340 339 340 339 338 340 339 338 340 340 338 339 341 341 342 342 341 340 339 337 337 337 337 336 336 336 336 336 336 336 336 336 336 335 335 335 334 334 334 333 332 331 331 330 329 329 329 329 329 329 329 329
354 353 352 352 353 353 352 351 351 351 352 353 354 355 355 355 354 354 353 353 351 350 349 347 346 343 341 340 340 341 340 340 341 340 339 339 338 338 340 340 339 340 341 339 339 341 341 341 342 342 341 339 337 337 336 337 338 338 337 336 336 336 336 336 337 336 335 334 335 334 334 333 333 333 332 332 331 330 330 329 329 329 329 329 329
355 354 353 353 353 353 352 351 351 350 351 353 354 354 354 354 354 353 353 352 352 350 349 347 346 345 343 341 339 339 338 340 341 341 339 338 338 339 340 340 339 340 340 340 340 341 342 341 342 343 342 341 340 340 339 338 339 340 339 338 338 336 335 335 337 337 336 334 334 334 334 334 333 333 332 332 332 331 330 330 330 330 329 329 329
355 355 355 354 353 353 352 352 351 351 351 353 353 353 353 353 354 353 352 352 351 350 349 348 347 346 344 343 341 339 336 337 339 340 340 338 338 338 339 339 339 339 340 342 342 342 342 342 342 342 342 342 342 342 340 338 337 338 339 339 340 339 337 336 336 336 336 335 334 334 333 333 332 332 331 331 331 330 330 330 330 330 329 329 329
356 356 356 356 354 353 353 352 352 352 352 353 353 353 353 353 353 352 352 351 351 350 349 349 347 346 345 344 342 341 338 336 336 338 339 339 339 338 338 338 339 340 341 342 343 343 342 342 342 342 342 342 342 341 340 338 339 340 340 339 340 340 340 339 337 335 335 334 334 335 333 332 333 333 331 331 330 330 330 329 329 329 329 329 329
356 356 356 356 356 355 354 353 353 353 353 353 353 353 353 352 352 352 351 351 350 350 349 349 347 346 345 345 344 343 342 339 336 337 337 338 339 338 338 338 338 339 341 342 343 343 343 342 342 342 343 343 342 342 342 342 342 343 341 339 339 340 340 340 339 337 335 334 334 335 334 332 333 333 331 330 330 330 329 330 330 329 329 328 328
356 356 356 357 357 356 355 354 354 354 354 353 353 353 352 352 351 351 351 351 350 350 349 348 347 346 346 345 344 344 343 341 339 337 337 337 338 338 338 338 338 339 340 342 343 343 343 342 342 342 342 342 343 343 343 343 342 342 341 340 340 340 340 339 339 338 336 334 333 334 333 330 332 333 331 329 329 329 330 330 330 328 327 326 326
357 357 357 357 357 357 357 356 355 355 354 353 353 352 352 352 351 351 351 350 349 349 349 349 347 347 346 345 345 344 343 341 339 338 338 338 338 338 338 338 338 338 340 341 343 343 343 342 341 342 342 342 343 343 343 342 341 341 341 340 340 340 339 338 337 337 336 334 333 333 332 331 331 332 331 329 329 329 330 329 328 327 326 325 324
358 358 357 358 358 357 357 357 357 356 355 354 353 353 352 351 351 350 351 350 349 349 349 349 348 347 347 346 344 344 343 341 340 340 339 338 339 339 339 338 338 338 338 338 340 342 342 341 341 341 342 343 344 343 342 341 341 341 341 340 340 339 338 337 336 334 334 334 332 331 331 330 330 331 331 330 330 330 329 327 325 324 324 323 322
358 358 358 358 358 358 358 358 357 357 356 354 353 352 352 352 351 351 350 350 350 349 348 349 348 348 347 346 345 344 342 342 341 340 339 339 339 339 339 339 338 338 338 338 338 339 340 340 341 342 343 343 341 340 340 340 340 341 341 340 339 339 337 336 334 333 333 333 332 331 330 329 329 329 329 329 330 329 328 325 322 320 319 319 318
359 359 358 358 358 358 358 357 357 357 357 355 354 353 352 352 351 350 350 350 350 349 349 349 349 349 348 347 346 344 342 341 341 340 340 339 339 339 339 339 338 338 339 339 338 338 338 339 341 342 342 341 337 336 337 338 338 340 340 340 338 337 336 335 334 333 332 331 330 330 329 328 328 328 328 328 328 327 327 325 321 318 316 315 315
359 359 358 359 359 358 358 358 357 357 357 356 354 353 352 352 352 351 350 350 350 349 349 349 349 349 349 348 346 344 343 342 341 341 341 339 339 340 339 339 339 338 338 339 339 338 337 338 339 340 340 338 333 333 337 338 338 338 338 338 337 336 334 333 332 331 330 330 330 329 329 327 327 327 326 326 325 325 324 323 322 319 316 312 311
360 360 359 359 359 358 358 358 357 357 357 356 355 354 353 352 352 350 349 349 350 349 349 349 349 349 349 347 346 344 343 343 342 342 341 339 339 341 341 340 339 339 339 339 338 337 337 338 339 338 336 334 331 334 337 338 338 338 337 336 335 334 333 332 330 329 328 329 329 329 328 326 326 325 324 324 324 323 322 321 321 320 316 312 309
359 359 360 359 359 359 358 358 358 358 357 357 355 354 353 353 352 351 349 350 350 350 349 349 348 348 348 347 346 344 343 344 343 343 341 338 339 342 343 343 342 342 342 340 338 337 338 338 336 334 332 331 332 335 337 338 338 336 335 335 334 333 332 331 329 328 328 328 328 328 327 326 325 324 323 323 322 321 321 321 319 317 314 312 311
359 359 360 360 359 360 359 358 359 358 357 357 356 355 354 353 352 351 350 350 351 350 350 349 349 349 347 346 345 343 344 344 343 344 342 337 338 342 343 343 343 343 343 341 338 338 337 335 333 330 329 330 334 337 338 337 336 333 333 334 333 331 330 329 328 328 327 327 327 326 324 324 323 323 322 322 321 319 319 320 318 315 313 312 312
360 360 360 360 360 360 359 359 358 358 358 358 356 355 355 353 353 352 351 350 351 351 351 350 350 349 347 345 344 343 344 344 344 344 342 337 337 342 343 342 342 342 342 340 339 337 335 333 331 330 331 333 336 338 337 335 333 332 332 333 331 329 329 328 328 328 327 325 325 324 322 322 321 321 321 321 320 318 316 316 316 315 313 312 311
Wind_Speed
7 5 4 4 3 3 3 2 2 2 2 2 2 2 2 2 3 4 5 6 6 5 5 4 3 2 1 2 3 3 4 5 5 5 5 4 4 3 4 4 3 3 5 6 6 7 8 7 8 8 7 6 7 6 5 4 4 5 6 6 6 6 6 5 5 5 5 5 5 5 5 5 5 4 3 3 3 2 2 2 3 3 4 5 5
7 6 5 4 3 3 3 2 2 2 2 3 3 2 2 2 3 4 5 7 6 6 6 4 3 2 3 3 4 5 4 4 4 4 4 4 3 2 5 5 3 3 4 7 7 7 7 7 8 8 8 8 8 7 6 6 6 5 5 6 6 5 6 6 6 6 6 6 6 6 5 5 5 5 5 4 4 4 3 3 4 4 4 4 5
8 7 6 5 4 4 3 3 3 3 3 3 3 4 3 3 3 3 5 6 5 6 6 4 3 3 4 5 5 4 3 3 3 3 3 4 4 3 4 5 3 2 4 6 7 6 6 7 7 8 8 9 9 9 8 8 8 7 7 7 6 6 6 7 7 7 7 7 6 6 6 6 6 5 6 6 5 5 5 4 4 5 5 5 5
8 8 7 6 5 5 5 5 4 4 4 4 4 4 4 4 4 4 4 4 3 5 5 3 3 3 4 4 4 2 0 2 2 2 2 3 3 2 3 4 3 2 3 6 6 5 5 5 7 7 8 8 9 9 9 10 10 8 8 8 8 8 8 9 8 8 8 8 7 7 7 7 7 6 6 7 7 6 6 6 6 5 6 6 6
8 8 8 7 7 7 6 5 4 4 4 4 4 4 4 4 5 4 3 2 2 3 4 3 3 2 3 4 2 2 1 1 2 2 2 2 2 2 1 4 5 3 3 4 5 4 4 4 5 6 7 7 8 9 9 11 11 10 9 9 9 9 9 10 10 9 9 9 8 8 8 8 8 8 8 8 8 8 7 7 7 7 7 7 7
9 8 8 8 7 8 8 6 5 4 5 5 5 4 3 3 4 3 1 1 2 3 3 3 2 2 2 3 2 2 2 1 1 2 2 2 2 2 1 4 5 4 3 3 4 4 4 4 4 5 6 7 6 7 9 10 10 11 10 10 10 9 10 11 12 11 9 9 10 10 10 10 9 9 9 9 9 9 9 8 8 8 8 8 8
10 9 9 9 9 9 9 7 5 5 5 5 6 5 3 3 3 2 0 1 2 3 3 3 2 1 1 2 2 4 3 3 2 1 2 2 2 1 0 2 4 3 3 3 3 4 4 4 4 5 6 6 5 6 7 8 8 9 9 9 9 9 11 13 13 12 11 10 11 12 12 11 10 10 10 10 10 10 10 9 9 9 9 10 10
11 11 10 10 10 10 10 8 6 6 5 6 6 5 3 3 3 1 0 1 1 2 2 2 2 2 2 1 2 3 4 5 4 2 1 1 2 2 1 2 3 3 3 3 3 4 4 3 4 4 5 5 5 5 5 6 6 6 7 7 7 8 11 13 12 12 12 11 12 13 13 12 11 12 12 12 11 11 10 10 10 10 10 11 12
12 12 12 11 11 11 10 9 7 6 6 6 7 6 4 4 3 2 2 1 1 1 1 1 1 2 2 2 2 3 4 4 5 4 2 0 1 1 1 1 2 2 2 2 3 3 3 3 3 4 5 4 5 5 4 4 4 5 5 5 5 5 8 9 10 11 11 11 12 12 12 12 12 13 13 12 12 11 11 11 12 12 11 12 12
13 13 13 12 12 12 12 10 8 7 7 7 8 7 6 4 4 4 2 1 1 2 2 1 1 1 1 1 2 3 3 3 5 5 3 1 0 0 1 0 0 1 1 2 2 2 1 2 3 3 4 4 4 4 3 3 3 4 4 4 4 4 5 6 7 8 9 9 10 11 11 11 12 12 12 12 12 11 11 13 14 13 12 13 13
14 13 13 13 13 13 13 11 9 8 8 9 9 8 8 5 4 6 4 1 1 3 3 1 1 2 1 0 1 2 3 3 4 4 3 2 1 1 1 1 0 1 0 1 1 2 1 2 2 2 3 2 2 2 1 2 2 3 3 3 3 3 4 5 5 5 6 6 7 9 9 9 10 10 10 10 11 11 11 13 14 13 14 15 14
14 14 13 13 13 14 13 12 10 9 10 10 9 9 8 6 5 7 6 3 2 3 3 2 1 1 1 1 1 2 3 4 4 3 3 2 1 1 1 1 1 2 1 0 0 1 1 1 1 1 1 1 2 1 1 1 2 2 2 2 2 3 3 4 4 4 4 4 5 6 6 7 8 9 9 10 9 9 10 12 13 12 13 15 14
15 15 15 14 14 14 13 12 11 10 11 11 10 9 7 5 5 7 7 4 3 3 3 2 1 2 2 2 2 2 2 3 3 3 3 2 1 1 1 1 2 3 2 1 1 1 2 2 2 1 1 1 2 2 2 3 3 3 2 1 1 1 2 1 2 2 3 3 3 4 4 5 5 6 8 8 8 9 9 11 11 11 12 13 13
16 15 15 15 15 14 13 13 12 11 10 10 11 10 7 6 6 7 7 6 4 4 4 3 2 3 3 3 3 1 1 1 2 2 2 2 1 0 1 2 3 3 3 3 3 3 3 2 2 2 2 2 2 2 3 4 3 3 2 1 1 2 2 2 1 1 1 1 2 3 3 3 3 3 4 5 6 7 8 9 10 10 11 11 11
17 16 16 15 15 14 13 13 12 11 11 10 11 10 8 7 8 8 6 6 5 5 6 5 3 2 3 3 2 2 1 2 2 2 1 2 1 0 1 2 3 3 3 3 3 3 3 2 2 1 1 1 1 2 4 4 3 4 3 3 4 4 4 4 4 4 3 3 3 3 3 3 4 3 3 3 3 3 5 6 7 8 9 9 10
17 17 16 16 15 14 14 13 13 13 11 10 10 10 9 9 10 9 7 6 5 5 7 7 5 4 3 2 1 2 2 2 4 2 1 2 1 1 1 2 2 2 3 3 3 3 3 3 3 2 1 2 2 4 5 5 6 7 6 6 6 5 5 5 5 5 6 6 6 5 5 4 3 3 3 2 2 2 2 3 4 5 6 7 8
19 18 17 17 16 15 15 15 15 14 13 11 10 11 11 10 9 9 8 6 5 5 7 8 7 7 6 2 1 2 1 2 4 2 1 2 1 1 1 0 1 1 2 2 3 3 4 5 5 4 2 2 4 6 8 8 8 8 8 8 7 7 6 6 6 6 6 7 6 6 6 5 5 4 3 2 2 2 2 2 3 3 4 4 5
20 19 18 18 17 16 16 16 16 15 14 13 12 12 12 11 10 9 9 8 7 6 7 7 7 9 9 6 3 2 0 3 3 2 2 3 2 2 2 1 1 2 1 1 2 3 4 5 6 6 4 5 6 8 9 9 9 8 8 8 7 7 7 6 6 6 7 7 6 6 6 6 5 5 5 4 3 3 2 2 2 2 3 3 4
21 20 19 19 18 17 17 17 17 17 15 15 14 13 13 12 11 10 9 9 9 8 7 7 5 7 10 9 6 4 2 4 3 2 3 3 3 4 3 3 3 3 2 1 0 1 2 3 5 6 5 7 8 8 8 7 8 8 8 8 7 7 7 7 6 6 7 7 7 6 5 5 5 6 6 6 5 5 5 5 4 4 3 2 2
21 21 20 19 19 18 18 18 18 18 17 16 15 14 13 13 11 10 9 9 10 10 8 7 6 5 7 8 6 6 5 5 5 4 3 3 4 5 5 5 5 4 4 3 2 1 0 1 2 3 4 6 7 6 6 5 5 6 6 7 7 7 7 7 7 7 7 8 7 6 4 4 4 5 5 6 6 6 6 6 6 6 6 5 5
23 22 21 20 20 19 19 19 18 18 18 17 16 14 13 14 13 12 11 10 12 12 9 8 7 6 6 6 5 4 4 6 6 6 4 4 4 5 6 6 6 6 6 5 4 3 2 1 1 1 1 3 4 4 3 3 2 2 3 4 4 5 5 6 6 6 6 7 8 6 4 2 3 3 4 4 5 4 4 4 5 5 5 5 5
24 23 23 21 21 20 19 19 16 17 19 18 17 16 14 15 14 13 12 11 13 14 11 9 9 8 7 7 5 4 4 4 6 7 5 4 4 5 6 7 6 6 7 7 6 4 4 4 3 3 2 2 2 3 3 2 2 1 1 2 2 3 4 4 5 6 6 7 8 8 5 2 1 2 2 3 3 4 4 3 3 3 3 3 3
26 25 25 23 22 20 19 17 15 16 20 20 18 17 16 16 15 14 13 12 14 15 13 11 11 11 10 8 7 5 4 4 6 8 7 5 5 5 6 6 6 5 6 8 9 7 6 6 6 5 5 5 5 5 5 5 5 5 5 5 4 4 4 5 5 6 7 7 8 8 7 4 2 2 2 3 3 4 4 4 4 4 4 5 5
27 27 27 26 24 19 15 15 14 16 20 21 19 18 17 17 16 15 15 14 15 15 13 12 12 12 11 10 8 6 6 5 4 6 7 6 6 6 5 4 5 6 6 8 9 9 9 9 8 8 8 7 7 7 7 7 8 8 8 8 8 7 7 7 6 7 7 8 8 8 7 6 4 4 5 5 6 6 6 7 7 7 7 7 7
28 29 29 28 26 21 16 16 16 18 21 21 20 19 18 18 17 16 16 15 16 16 15 14 13 12 11 11 10 8 7 5 5 6 7 7 6 6 5 3 5 6 4 5 6 7 10 11 11 11 10 10 9 10 10 10 10 10 10 11 11 11 10 10 8 7 7 8 8 8 8 7 6 6 7 7 7 7 8 8 9 9 9 9 9
31 31 30 29 28 26 23 20 19 20 21 21 20 20 19 19 18 17 17 16 16 17 16 14 14 13 12 13 13 10 8 7 6 6 7 7 8 7 5 3 5 6 3 4 6 7 8 9 11 13 12 11 11 11 12 12 12 13 12 13 14 14 13 12 10 9 8 7 8 8 8 7 7 7 8 8 9 9 9 9 9 9 9 9 9
33 32 31 30 30 29 28 26 23 22 22 21 22 21 20 20 19 18 18 17 16 17 18 16 15 14 13 13 13 12 10 9 7 7 7 7 7 8 6 4 4 5 4 4 6 8 7 6 8 10 11 11 11 12 12 12 13 14 14 14 15 14 13 13 12 10 9 8 8 8 8 8 8 8 8 9 10 10 10 10 9 8 8 8 8
34 33 32 31 31 30 30 29 26 25 24 23 23 23 21 21 20 20 20 19 17 16 18 17 16 15 13 13 13 13 12 11 9 8 8 8 7 7 8 6 4 3 4 4 5 7 7 6 6 8 10 10 10 10 10 11 12 12 12 13 13 13 13 12 11 10 10 10 11 11 11 10 10 10 9 10 10 10 11 10 9 8 8 8 8
35 34 33 32 32 31 31 30 28 27 27 25 24 24 23 22 22 21 21 21 18 17 17 18 17 17 15 14 14 14 14 13 12 11 10 9 9 8 8 7 5 4 3 3 4 4 4 5 5 6 8 9 8 7 8 8 8 9 9 10 10 11 11 11 11 11 11 12 13 13 13 13 13 12 12 11 11 11 11 10 10 10 10 10 10
35 34 34 33 33 32 31 31 30 30 29 27 26 25 24 23 23 22 22 22 20 18 18 18 18 18 16 15 14 15 15 14 13 13 12 11 10 9 8 7 6 5 4 3 3 3 3 3 4 4 6 7 6 6 6 6 7 8 8 9 9 9 10 11 12 13 13 14 14 15 15 15 15 15 14 14 14 13 12 12 11 12 12 12 12
36 35 34 33 33 33 33 32 31 31 30 29 29 27 26 25 24 24 23 23 22 21 19 18 19 19 17 16 16 16 16 15 14 14 13 13 12 10 9 8 7 6 5 4 3 3 3 3 3 5 6 7 6 6 6 7 9 10 10 10 11 10 11 12 13 14 14 14 15 15 15 15 16 16 16 17 17 16 15 14 13 13 13 13 14
36 36 35 34 34 34 34 33 32 31 31 31 30 29 28 27 26 26 25 24 24 23 21 19 20 20 19 17 17 17 17 16 15 15 14 14 14 12 11 10 9 8 7 6 5 4 4 5 4 5 6 7 7 7 7 7 8 9 9 10 11 11 11 12 12 13 13 13 14 14 15 15 16 16 16 16 17 17 17 17 17 16 15 15 15
37 36 36 36 35 35 34 33 33 33 33 33 32 31 30 29 29 28 27 26 25 25 23 21 21 22 21 19 18 18 18 17 17 16 15 15 15 14 13 11 10 10 10 8 7 6 6 6 6 6 7 7 8 8 7 6 6 7 8 9 10 10 10 10 10 12 12 11 12 13 14 14 15 15 15 16 16 16 16 17 18 18 18 18 18
39 38 37 36 36 35 35 34 35 35 34 34 34 33 32 31 30 29 29 27 27 26 25 24 23 23 23 21 20 20 20 18 18 18 16 15 15 14 14 13 11 12 12 11 8 7 7 6 6 7 7 8 8 7 7 6 6 6 7 8 9 9 10 10 10 11 12 11 11 12 13 13 14 14 15 15 16 16 16 16 17 17 18 19 19
39 40 39 37 37 37 36 36 36 36 36 35 35 35 34 33 32 31 31 29 28 28 28 27 25 25 25 24 22 21 21 21 20 20 18 18 17 16 16 16 14 12 14 13 10 8 8 7 6 6 7 8 9 8 7 7 7 7 8 8 8 9 10 11 11 12 12 12 12 13 14 14 14 14 15 16 16 16 16 16 16 16 17 17 18
38 41 41 39 38 38 37 37 37 38 37 37 36 36 36 35 34 33 32 31 30 30 29 29 28 27 26 26 24 23 23 23 22 22 22 21 21 20 18 17 17 14 14 15 13 10 9 8 7 7 7 8 9 8 8 8 8 9 9 9 9 10 12 12 12 13 13 12 13 14 14 15 16 16 16 17 17 17 17 17 17 17 16 17 17
38 40 41 40 39 38 38 39 39 39 39 38 38 37 37 36 35 34 33 32 32 31 31 30 30 29 28 27 27 26 26 26 25 24 24 23 23 23 20 18 18 16 15 16 15 12 11 10 9 8 9 10 10 10 9 9 8 9 10 10 11 11 12 12 12 13 13 13 13 14 15 16 17 18 18 18 18 19 19 18 18 18 18 18 18
37 37 40 41 40 40 40 40 40 41 40 39 39 38 38 37 36 35 34 34 33 32 32 32 31 31 30 29 29 29 29 28 27 26 26 25 25 25 23 21 20 18 17 16 15 13 12 12 11 10 9 9 8 8 9 10 8 8 10 11 12 11 12 12 11 10 11 13 14 15 16 16 16 17 17 17 18 18 18 18 18 19 20 20 19
37 35 35 38 41 41 41 41 42 42 41 41 40 39 39 38 37 36 34 34 34 33 33 33 33 32 32 32 31 31 31 31 30 29 28 27 26 26 25 24 22 21 18 16 15 14 13 13 12 11 10 9 9 8 10 12 12 11 11 11 10 9 10 13 12 10 11 14 16 16 15 14 14 15 16 15 16 16 16 16 16 16 16 16 15
36 35 33 34 38 41 41 42 42 42 42 41 40 40 39 38 37 36 36 35 34 34 34 34 33 33 32 32 33 33 33 33 32 31 30 29 27 26 26 25 23 22 19 16 15 14 14 13 12 11 11 10 10 11 12 13 11 10 9 8 8 9 10 12 13 13 13 14 14 13 11 12 11 12 15 16 16 16 15 15 15 14 15 15 15
34 34 33 32 34 38 41 42 42 41 41 42 41 40 40 39 38 37 37 37 36 35 35 35 34 33 32 33 33 34 34 33 32 31 30 30 29 28 27 26 25 23 19 16 15 15 14 14 13 12 11 10 10 10 10 10 8 7 6 6 9 10 10 12 13 12 11 10 10 9 10 12 11 11 15 17 17 17 16 15 15 15 15 17 17
34 34 34 32 31 34 38 41 40 40 41 43 42 41 40 40 40 38 38 38 37 37 36 35 34 34 34 34 35 35 34 33 31 29 29 29 29 29 28 27 26 25 21 18 16 15 14 14 13 12 11 11 10 8 8 8 7 7 7 7 8 9 9 11 11 9 6 5 7 8 11 14 12 11 14 16 17 16 14 13 13 13 14 16 16
34 34 35 33 31 31 33 36 38 40 42 43 41 41 41 40 39 39 39 39 38 37 37 37 35 35 36 36 35 34 34 32 30 29 29 29 29 29 28 26 26 26 24 20 18 16 15 14 13 13 12 12 9 6 7 7 7 7 7 7 8 8 8 9 10 9 8 8 10 11 13 14 13 12 13 14 15 14 12 12 13 14 15 15 15
34 34 34 34 33 31 30 32 34 37 41 42 41 41 42 41 40 39 38 39 38 36 37 37 36 36 37 36 33 33 34 31 29 29 29 29 29 29 28 27 26 25 24 23 21 18 17 16 15 14 13 10 6 5 7 8 7 8 8 7 7 7 8 9 11 12 11 11 11 13 15 14 13 14 14 13 13 12 11 12 13 12 12 13 13
33 33 34 33 33 33 32 32 33 33 36 40 41 41 42 42 42 39 37 37 38 37 38 38 38 38 38 36 33 33 32 29 27 28 28 28 29 29 28 27 27 26 25 24 22 20 19 17 15 14 11 9 7 7 8 9 9 8 8 8 7 7 8 10 12 13 12 11 11 14 16 15 13 13 14 13 11 10 11 12 13 12 13 13 13
32 33 35 34 34 35 34 34 34 32 33 36 40 42 42 42 42 41 38 37 36 37 39 40 40 40 39 37 35 32 30 28 28 28 27 27 28 29 28 28 29 28 27 25 23 22 21 18 15 14 13 12 12 10 9 10 11 10 9 8 8 8 9 11 12 13 13 12 12 13 14 14 13 13 15 13 11 11 11 13 15 16 16 15 15
32 34 35 35 36 36 35 35 35 33 33 35 38 41 43 43 42 41 40 35 32 36 39 40 41 41 40 38 35 31 29 29 30 29 27 27 27 28 29 30 30 30 29 26 24 23 23 21 20 19 16 14 13 10 10 11 12 11 9 9 7 7 9 11 11 12 12 11 9 10 12 14 13 14 15 14 13 13 13 14 16 17 17 17 16
31 32 34 35 36 35 35 36 36 34 33 34 37 40 43 43 41 41 42 36 31 35 39 39 40 41 40 38 34 30 29 29 30 29 27 26 26 25 26 28 29 28 27 26 23 23 23 22 20 18 15 13 12 12 12 13 12 10 8 8 7 7 8 11 12 12 12 9 7 8 12 14 13 13 15 14 13 15 16 15 14 15 17 18 17
31 32 34 35 35 35 37 38 37 34 34 36 37 38 41 42 41 42 43 37 31 34 38 40 40 39 38 36 33 30 28 28 29 28 26 25 24 23 23 24 24 23 21 23 24 22 20 18 15 13 13 14 14 13 14 14 13 10 8 7 7 8 9 10 11 11 11 10 8 7 10 13 12 13 14 13 13 16 16 14 13 14 17 18 18
32 33 33 33 33 34 37 39 38 35 34 37 39 39 40 43 42 42 45 39 31 29 32 34 34 33 33 33 32 31 29 28 28 26 25 25 24 23 22 22 22 20 18 20 22 21 17 14 13 13 14 15 14 14 13 13 13 12 10 8 8 9 10 10 11 11 11 11 7 5 7 11 12 11 13 13 14 15 14 13 13 15 16 17 17
33 32 31 31 32 33 35 38 39 37 35 37 40 39 41 43 42 43 46 41 32 28 28 27 25 24 26 28 29 31 29 27 27 25 24 26 26 23 21 21 21 20 19 20 21 20 17 16 15 14 15 15 14 13 13 13 13 13 11 9 9 10 10 10 10 9 9 9 6 3 6 10 11 11 12 13 12 12 12 13 15 16 17 17 18
Wind_Direction
232 230 233 236 242 245 256 280 306 323 324 323 316 317 338 345 338 337 335 328 327 325 324 317 293 294 300 302 307 302 302 293 290 293 290 289 289 278 262 254 249 234 211 216 232 232 229 223 219 218 211 214 224 233 233 234 238 228 220 218 224 229 224 219 220 219 215 206 206 213 212 215 227 230 233 244 254 265 279 292 300 305 315 321 322
233 231 236 238 242 249 260 276 293 310 313 313 300 306 317 321 323 322 328 328 323 321 324 316 283 276 285 296 299 298 302 295 290 289 287 293 300 284 262 257 248 231 210 218 232 236 237 232 228 225 221 222 221 223 228 231 230 228 232 231 235 244 237 231 231 232 230 225 221 226 229 227 233 239 243 252 261 268 276 284 289 295 303 310 315
231 231 237 242 245 254 264 270 290 303 298 307 304 304 308 308 307 303 326 333 323 325 330 321 296 275 283 301 299 294 312 305 292 290 296 299 304 294 266 266 252 226 220 228 235 239 242 239 235 229 225 228 226 223 225 232 229 225 230 229 232 245 245 239 238 242 242 241 237 239 246 247 250 252 254 260 262 264 268 271 277 283 289 294 299
232 233 239 245 250 255 263 268 285 299 294 303 304 303 307 310 310 312 330 336 331 336 341 336 315 283 286 310 299 254 297 340 327 329 333 321 315 302 259 262 254 219 218 235 241 241 241 242 242 237 231 232 231 228 227 234 235 230 231 230 227 231 238 241 241 245 248 250 249 250 254 258 264 263 262 264 263 263 260 259 263 270 276 280 284
233 235 240 246 252 255 261 268 278 292 295 295 293 296 302 312 321 328 336 347 358 352 351 349 329 306 301 317 300 216 200 359 3 3 4 2 346 343 253 246 247 213 195 233 244 244 244 244 246 243 238 237 236 233 231 233 234 235 236 236 235 233 239 244 243 241 241 249 255 254 252 251 256 260 259 259 259 258 254 253 256 261 267 272 276
235 237 239 246 254 256 260 266 275 286 291 288 288 292 293 307 318 322 351 36 21 4 1 357 341 334 318 318 292 229 249 303 345 8 17 23 356 343 214 229 241 220 197 217 232 241 246 243 246 246 242 239 236 235 236 235 236 242 242 241 244 243 245 244 242 242 239 245 254 255 254 251 251 254 258 258 259 259 258 257 255 257 262 266 272
237 241 241 246 252 254 258 264 278 288 283 280 287 294 283 287 299 296 28 57 19 9 6 358 344 312 262 312 293 251 258 271 275 340 1 14 7 346 237 231 240 228 221 226 230 238 236 239 245 244 242 235 233 235 238 239 240 245 246 246 248 246 250 247 242 245 243 241 249 254 256 257 257 258 259 260 261 264 270 272 266 263 265 266 268
239 244 245 246 248 252 259 265 281 289 277 270 283 295 280 269 280 274 120 75 8 3 354 339 334 293 216 206 285 268 271 272 265 276 320 15 23 5 346 277 248 233 233 242 250 247 237 244 246 245 249 243 239 241 238 243 245 244 246 248 247 242 251 253 247 247 246 244 249 254 259 261 262 261 260 260 262 268 272 273 271 266 264 265 267
239 244 246 246 247 252 259 265 280 285 274 270 279 289 280 256 250 220 146 91 335 333 335 299 305 301 227 221 260 266 281 279 268 266 262 302 40 28 10 295 241 233 251 266 263 254 245 249 241 235 247 246 245 245 238 243 248 247 247 245 243 235 244 255 253 251 250 249 250 254 260 262 264 264 262 263 264 268 270 268 270 269 266 266 269
239 242 246 246 247 250 254 260 270 272 270 272 279 286 282 263 237 209 175 101 339 328 321 281 272 272 245 266 256 256 280 277 272 268 243 223 92 44 17 11 184 182 251 302 290 281 275 256 248 237 242 241 238 243 247 254 257 257 253 244 246 245 246 254 256 253 250 250 251 253 257 260 264 266 265 264 262 264 268 269 269 270 271 269 270
238 241 245 246 248 249 251 254 260 265 268 271 276 279 278 271 236 214 211 214 295 326 318 282 258 245 234 284 251 261 279 272 281 269 221 206 230 263 12 37 112 141 172 332 309 301 290 261 263 243 243 259 247 234 245 274 280 274 268 268 270 269 265 260 262 262 256 256 256 257 259 260 265 266 265 266 265 262 265 267 267 268 270 270 271
238 241 245 247 248 249 250 251 254 261 265 268 271 273 273 265 232 217 223 237 268 308 303 254 228 232 229 245 256 288 286 266 276 258 213 212 255 263 66 95 116 121 113 63 175 262 295 294 306 231 210 312 312 311 48 37 357 324 306 295 279 276 276 271 270 270 265 264 263 263 264 263 263 265 266 267 266 264 263 266 268 269 269 270 273
239 242 245 248 249 248 248 249 254 260 264 269 273 274 270 258 231 220 225 234 257 288 278 235 218 205 204 225 256 305 302 270 262 242 219 237 279 290 91 106 108 107 102 91 91 65 48 31 17 34 57 30 357 354 26 36 25 9 354 330 285 282 297 279 266 268 271 277 280 281 280 273 271 268 266 266 266 265 266 270 274 273 271 270 271
239 242 246 248 248 248 247 249 255 260 264 269 272 269 261 247 229 219 229 234 241 269 254 224 218 212 201 208 231 261 297 263 237 217 223 253 288 337 76 80 88 86 86 85 67 47 36 30 38 42 27 29 29 28 41 46 44 40 35 43 73 70 65 74 67 31 2 340 317 318 323 317 312 296 277 275 272 265 263 269 272 271 272 272 268
239 242 247 249 249 248 249 251 255 257 259 262 263 256 245 236 226 219 225 227 231 251 242 227 211 192 194 202 221 221 189 201 205 200 241 257 273 67 74 67 71 72 77 79 56 30 18 28 58 72 50 55 67 71 73 83 91 86 90 96 91 84 77 73 67 64 56 42 26 8 6 4 354 345 328 313 298 282 268 270 270 266 270 273 270
238 242 246 249 249 248 249 251 253 256 256 255 253 248 242 233 224 218 214 217 225 228 229 229 217 196 194 191 196 221 217 186 190 201 243 229 199 114 91 63 56 54 69 68 41 30 36 50 66 76 100 110 101 92 91 96 97 92 93 97 98 95 88 80 73 68 61 54 52 46 41 36 22 9 4 354 336 323 293 280 279 274 276 275 271
236 240 245 248 249 248 250 251 252 254 253 250 248 246 243 232 222 215 212 223 231 215 215 224 225 214 206 197 189 230 234 165 177 194 207 208 192 188 237 18 27 19 43 32 15 31 60 73 76 75 90 109 108 105 103 98 92 90 92 95 95 91 85 78 72 69 64 60 58 55 54 53 49 43 31 13 351 330 308 297 291 288 288 285 280
235 239 244 248 250 250 251 251 252 253 251 250 247 244 240 230 223 216 214 227 227 211 206 214 226 219 213 223 254 284 205 160 185 186 178 203 220 220 230 252 275 299 321 353 9 28 59 78 79 76 92 114 116 112 106 96 87 86 90 92 89 84 79 74 70 65 58 52 48 49 52 55 57 56 52 43 36 24 2 350 327 309 300 292 289
235 238 242 247 251 252 252 252 252 252 251 249 246 242 238 231 228 223 224 228 219 212 207 203 214 217 217 227 247 269 233 183 204 205 187 206 217 220 227 237 252 263 261 249 22 28 46 69 78 79 97 121 120 113 110 100 88 83 83 84 82 76 73 71 67 60 49 39 32 28 33 44 53 59 61 61 58 56 51 48 46 37 23 1 337
233 237 241 247 252 254 253 252 252 251 250 249 245 242 238 232 228 226 229 226 215 214 212 206 207 207 213 221 233 251 236 211 219 227 228 226 210 216 224 229 239 238 231 227 218 202 83 56 80 85 105 134 134 121 115 111 97 86 80 79 76 71 66 62 58 53 45 36 28 19 18 29 42 53 63 66 66 65 62 60 60 56 54 51 43
233 236 240 246 253 254 252 250 248 248 249 248 246 242 237 232 230 228 228 224 215 215 217 218 221 211 200 203 207 217 213 210 219 220 232 242 218 213 217 219 228 229 226 226 223 218 216 225 221 156 125 153 161 155 142 127 105 87 78 71 67 63 55 47 41 36 29 26 23 18 13 26 41 48 55 58 56 54 54 53 54 54 54 52 48
234 236 239 244 251 252 248 245 242 245 249 248 245 242 236 233 233 233 232 227 217 215 219 225 229 223 209 201 191 180 184 197 207 206 212 233 235 227 220 219 223 221 219 224 226 226 228 227 231 239 242 235 220 215 221 235 260 291 316 345 9 22 24 21 16 13 7 6 10 12 8 6 42 46 42 37 33 27 22 19 19 25 25 23 20
235 236 238 242 247 246 241 239 236 243 248 247 245 243 238 234 234 233 231 230 222 217 221 227 232 231 223 213 205 202 209 212 209 206 208 218 226 237 232 227 235 227 216 224 228 232 238 238 240 246 249 253 258 258 259 263 270 279 289 298 310 319 333 346 349 353 353 349 353 1 3 358 341 345 352 349 347 343 340 338 339 340 341 338 333
234 236 237 240 242 238 231 232 232 238 245 246 246 243 239 236 235 232 230 230 225 219 220 225 229 230 226 220 218 217 221 228 222 210 215 220 223 243 238 220 238 238 226 233 237 239 243 245 246 249 254 258 261 264 268 272 275 280 285 289 293 297 304 315 326 334 339 340 340 345 351 350 342 335 331 329 327 322 316 312 310 312 316 319 321
232 234 235 237 237 233 228 230 231 237 243 245 245 243 239 236 235 232 230 231 228 222 222 226 227 230 229 228 229 226 218 227 236 218 216 217 221 237 231 210 238 242 234 241 249 251 248 247 248 248 252 259 267 271 274 278 281 283 284 285 286 286 288 294 304 315 323 329 333 335 336 336 333 329 325 323 322 318 312 304 299 297 299 303 308
231 233 233 233 234 234 234 235 234 239 243 244 244 243 240 237 235 233 232 233 232 227 227 229 230 231 235 237 237 233 224 225 231 223 214 210 215 223 210 200 235 243 246 240 244 253 251 250 252 250 251 258 269 275 275 277 280 281 281 281 281 278 276 278 284 293 303 311 317 323 325 323 321 319 317 316 315 314 311 304 294 289 288 292 295
232 233 234 234 235 235 237 239 238 241 243 242 243 242 239 236 235 234 233 235 235 231 231 232 232 232 235 241 240 234 231 230 224 220 218 216 217 214 201 197 221 230 237 236 239 246 249 256 261 255 253 258 268 271 268 267 267 270 273 272 273 270 265 264 267 273 283 290 296 300 304 306 307 309 310 312 312 311 307 302 295 288 283 286 290
231 233 235 236 237 236 237 239 239 242 243 242 241 241 238 234 233 233 232 234 235 233 232 233 234 233 234 240 239 232 232 233 228 220 216 215 213 207 203 208 219 225 229 233 242 246 245 250 259 258 257 259 263 260 257 258 258 262 268 269 271 269 262 257 256 261 271 279 285 287 290 292 295 298 302 305 309 309 304 295 289 287 286 288 292
231 233 234 236 237 237 238 238 239 242 242 241 241 240 238 234 233 233 231 233 235 234 234 234 233 233 233 238 238 232 231 234 234 228 219 211 208 207 208 214 224 235 241 241 245 243 237 238 244 250 250 249 251 249 245 248 253 258 266 271 273 271 265 258 255 261 270 277 282 284 285 286 288 291 294 296 299 301 299 290 281 279 283 287 291
231 232 233 235 236 237 238 238 239 241 241 239 239 239 237 233 232 233 233 233 234 234 235 234 231 230 232 237 236 231 230 233 233 231 223 214 211 213 216 216 218 227 239 250 249 236 227 233 231 226 230 231 235 244 252 258 262 263 266 268 269 269 265 258 257 263 269 275 279 282 283 282 282 284 286 288 289 288 287 284 278 275 277 281 286
230 231 232 232 234 236 236 237 237 239 239 238 238 238 236 233 231 231 231 232 232 234 235 233 229 228 230 233 232 227 227 229 230 229 223 216 213 213 218 218 218 222 228 235 240 223 214 225 221 215 221 225 230 248 267 273 273 271 270 270 270 271 268 264 263 266 271 276 279 282 283 282 281 280 281 282 282 281 278 275 273 272 273 277 280
230 231 231 231 232 234 234 234 233 235 236 235 236 236 234 233 231 229 230 231 230 231 233 231 228 228 228 229 228 225 226 226 226 226 222 217 214 213 218 221 223 224 217 219 237 238 223 229 230 220 222 230 240 254 263 266 267 267 266 266 267 269 270 271 274 276 277 281 284 286 287 286 284 282 280 280 280 281 278 273 270 270 271 273 276
230 230 230 231 232 233 233 232 231 233 234 233 234 234 233 232 231 230 230 231 229 229 230 229 228 227 227 226 225 225 225 224 222 222 220 218 217 216 220 221 219 222 218 217 237 249 240 236 235 230 231 239 248 252 252 253 258 262 263 263 265 268 271 273 278 283 286 288 291 293 293 291 290 286 283 282 282 282 281 278 275 274 273 273 275
230 230 230 231 231 232 231 231 232 233 234 233 232 233 232 231 230 229 229 229 228 226 227 227 227 227 226 225 224 224 224 223 221 220 218 218 218 216 219 220 217 219 222 222 233 246 246 237 233 234 236 243 248 247 246 251 257 265 271 272 272 273 276 278 278 282 289 294 295 295 295 294 292 291 288 286 286 283 281 279 279 278 278 276 275
230 230 231 230 231 231 231 231 232 233 233 232 231 232 232 231 229 229 229 229 227 225 225 226 226 226 225 224 222 222 223 222 221 221 219 220 220 218 218 221 219 219 224 226 229 239 248 243 234 234 234 238 247 250 253 262 269 276 281 282 281 280 283 285 282 282 289 296 297 296 295 293 290 289 289 290 290 289 284 280 278 278 279 278 277
227 230 231 230 230 231 230 231 232 232 232 230 230 231 232 232 231 230 230 230 229 227 226 226 226 226 225 223 221 220 221 222 222 223 222 221 222 222 219 220 221 220 223 226 226 232 248 253 242 238 241 248 255 258 263 271 277 281 284 286 286 287 289 290 288 288 291 292 291 290 289 288 285 282 282 285 286 287 287 284 281 280 278 278 276
224 228 230 229 228 229 229 231 232 232 232 230 229 229 231 232 231 231 231 231 230 229 228 228 228 228 227 226 224 222 221 220 220 222 223 221 223 222 218 219 222 222 223 227 226 226 238 250 250 249 254 259 264 270 274 277 279 283 287 290 293 294 295 294 291 293 296 292 286 286 286 286 283 279 278 282 283 284 285 287 286 282 279 279 278
221 224 228 228 227 228 229 231 232 233 232 230 229 229 230 231 231 230 230 232 232 231 230 230 230 230 229 229 228 226 225 222 220 221 222 222 222 221 219 221 223 223 224 226 225 223 230 240 247 251 253 255 260 268 276 280 282 284 289 295 297 297 299 301 297 294 299 300 295 293 293 291 288 285 285 286 286 286 287 289 289 284 280 281 279
218 220 223 226 227 228 229 230 232 233 232 230 229 229 229 230 229 228 228 229 230 231 231 232 232 232 232 231 230 230 229 227 225 224 223 221 221 222 222 223 224 225 223 223 223 222 226 233 240 244 246 250 254 259 272 282 286 287 289 294 295 293 296 301 300 299 302 304 303 301 300 299 296 294 294 293 291 290 289 290 291 286 281 279 278
216 218 219 222 226 228 229 230 231 232 231 230 229 228 228 228 228 228 227 227 228 229 231 233 232 232 232 232 232 232 233 232 229 228 226 223 220 221 222 222 224 223 220 220 221 221 227 232 235 238 240 245 252 260 269 274 276 278 280 284 287 287 290 293 298 303 303 302 302 302 304 305 301 297 299 299 296 294 291 288 286 285 282 280 280
215 217 218 219 222 225 227 228 229 230 230 229 228 227 226 226 227 227 226 227 227 228 230 232 231 231 231 232 233 234 235 234 232 230 230 229 224 220 220 220 221 222 220 219 221 222 226 232 234 235 236 240 245 250 254 254 254 259 261 265 275 281 288 294 299 305 305 301 298 297 301 306 304 301 302 302 299 299 298 294 288 286 285 283 283
215 216 217 217 217 221 224 226 227 227 228 229 229 228 226 226 226 226 225 226 226 227 229 229 230 231 232 232 234 236 236 236 233 230 231 231 228 225 223 222 221 221 218 217 221 223 224 230 234 234 236 244 246 241 247 254 256 257 252 254 267 277 291 299 303 306 303 304 306 301 301 305 306 304 303 302 301 302 302 297 290 284 282 282 282
215 216 218 217 216 218 220 222 224 226 228 230 229 228 228 227 226 225 225 226 225 225 227 228 228 230 233 234 235 235 235 234 231 230 229 231 230 229 229 228 226 224 220 217 218 220 224 231 236 236 239 248 251 247 261 269 258 250 249 252 262 276 290 296 300 303 301 306 311 305 302 305 304 301 301 303 306 305 300 293 289 284 283 285 287
213 215 217 217 217 218 218 220 222 225 228 231 229 228 229 228 226 224 225 226 225 223 224 227 229 231 234 234 232 232 232 229 227 227 228 230 231 231 230 229 230 229 227 224 222 221 224 230 237 242 244 247 251 254 264 264 252 245 246 245 250 263 277 284 290 297 301 305 308 304 302 304 302 299 298 300 302 300 296 297 300 298 298 301 301
212 214 216 217 218 219 218 220 222 223 226 230 229 228 229 229 227 225 224 225 225 223 224 227 229 232 234 233 230 230 229 225 223 224 226 228 230 231 231 230 230 230 231 232 231 229 228 231 239 243 238 236 247 254 252 249 245 242 242 244 249 257 269 278 285 291 295 299 302 301 300 300 298 296 297 298 298 297 296 303 313 316 314 312 308
212 214 216 217 219 220 219 221 223 223 225 228 229 228 228 229 228 225 223 225 225 225 227 229 231 234 235 234 231 228 225 222 221 222 223 226 228 229 228 229 229 230 230 232 233 234 233 232 238 240 238 246 255 250 239 237 238 239 244 250 254 260 270 279 285 287 288 291 293 292 294 299 300 298 298 301 302 300 298 303 312 317 318 316 313
213 214 215 216 218 219 220 222 224 226 226 227 227 227 227 227 227 225 223 223 223 226 229 231 233 237 238 237 233 227 222 223 223 222 221 224 226 227 227 227 228 229 230 230 230 232 233 235 241 244 248 256 255 239 231 237 238 240 249 256 260 268 277 282 287 289 290 288 280 277 287 298 302 299 300 304 304 301 302 304 308 313 317 320 319
215 215 215 217 217 218 220 222 223 225 228 227 226 225 225 225 224 223 222 220 221 226 229 231 234 237 238 237 231 223 220 225 228 225 223 222 222 222 223 224 226 228 229 230 229 229 233 239 245 247 248 249 239 224 224 233 237 239 246 256 265 272 275 282 288 289 291 289 269 267 288 298 302 300 300 304 304 301 303 305 305 310 315 320 322
215 215 216 217 217 217 220 221 220 221 225 226 224 222 222 221 220 219 219 219 220 224 228 232 233 234 236 235 229 222 220 226 230 228 224 222 218 216 218 219 221 223 225 227 228 229 234 238 235 228 228 230 226 221 222 229 235 238 237 244 262 268 266 276 287 288 291 294 283 275 289 298 303 303 301 303 303 300 301 303 304 310 315 317 319
217 218 218 218 218 217 218 220 218 217 221 223 221 219 219 218 217 217 218 218 218 221 225 229 230 231 232 232 227 221 220 226 230 228 224 221 216 214 215 216 217 218 216 218 223 223 221 217 209 207 214 220 221 222 224 229 235 237 235 242 263 270 266 272 284 287 290 292 286 276 289 297 303 305 304 305 303 299 301 302 303 309 314 316 315
219 220 220 220 220 218 219 221 219 216 219 222 219 217 217 216 214 215 217 216 216 219 220 221 222 224 227 227 224 221 221 224 225 223 220 219 215 212 213 212 214 215 210 211 214 210 203 201 202 206 213 217 219 221 224 229 233 234 232 242 260 265 263 269 277 281 287 291 289 286 295 298 303 307 309 309 306 303 306 304 303 306 309 311 312